owner,sensor,date,latitude,longitude,vertical_datum,direction_of_sea_water_velocity,sea_water_speed,upward_sea_water_velocity,qcFlag 
ADCP,ioos:station:wmo:42373:1,2008-07-01T00:19:00Z,27.3540,-94.6250,79.0,78.0,37.1,-9999.0,'11111222,11111222,99999999' 
ADCP,ioos:station:wmo:42373:1,2008-07-01T00:39:00Z,27.3540,-94.6250,79.0,79.0,37.0,-9999.0,'11111222,11111222,99999999' 
ADCP,ioos:station:wmo:42373:1,2008-07-01T00:59:00Z,27.3540,-94.6250,79.0,79.0,35.9,-9999.0,'11111222,11111222,99999999' 
ADCP,ioos:station:wmo:42373:1,2008-07-01T01:19:00Z,27.3540,-94.6250,79.0,78.0,34.4,-9999.0,'11111222,11111222,99999999' 
ADCP,ioos:station:wmo:42373:1,2008-07-01T01:39:00Z,27.3540,-94.6250,79.0,77.0,32.6,-9999.0,'11111222,11111222,99999999' 
ADCP,ioos:station:wmo:42373:1,2008-07-01T01:59:00Z,27.3540,-94.6250,79.0,77.0,30.2,-9999.0,'11111222,11111222,99999999' 
ADCP,ioos:station:wmo:42373:1,2008-07-01T02:19:00Z,27.3540,-94.6250,79.0,74.0,28.7,-9999.0,'11111222,11111222,99999999' 
ADCP,ioos:station:wmo:42373:1,2008-07-01T02:39:00Z,27.3540,-94.6250,79.0,72.0,26.9,-9999.0,'11111222,11111222,99999999' 
ADCP,ioos:station:wmo:42373:1,2008-07-01T02:59:00Z,27.3540,-94.6250,79.0,70.0,26.3,-9999.0,'11111222,11111222,99999999' 
ADCP,ioos:station:wmo:42373:1,2008-07-01T03:19:00Z,27.3540,-94.6250,79.0,70.0,26.9,-9999.0,'11111222,11111222,99999999' 
ADCP,ioos:station:wmo:42373:1,2008-07-01T03:39:00Z,27.3540,-94.6250,79.0,69.0,25.6,-9999.0,'11111222,11111222,99999999' 
ADCP,ioos:station:wmo:42373:1,2008-07-01T03:59:00Z,27.3540,-94.6250,79.0,70.0,23.9,-9999.0,'11111222,11111222,99999999' 
ADCP,ioos:station:wmo:42373:1,2008-07-01T04:19:00Z,27.3540,-94.6250,79.0,70.0,25.1,-9999.0,'11111222,11111222,99999999' 
ADCP,ioos:station:wmo:42373:1,2008-07-01T04:39:00Z,27.3540,-94.6250,79.0,71.0,26.7,-9999.0,'11111222,11111222,99999999' 
ADCP,ioos:station:wmo:42373:1,2008-07-01T04:59:00Z,27.3540,-94.6250,79.0,65.0,23.6,-9999.0,'11111222,11111222,99999999' 
ADCP,ioos:station:wmo:42373:1,2008-07-01T05:19:00Z,27.3540,-94.6250,79.0,63.0,22.8,-9999.0,'11111222,11111222,99999999' 
ADCP,ioos:station:wmo:42373:1,2008-07-01T05:39:00Z,27.3540,-94.6250,79.0,62.0,23.8,-9999.0,'11111222,11111222,99999999' 
ADCP,ioos:station:wmo:42373:1,2008-07-01T05:59:00Z,27.3540,-94.6250,79.0,59.0,23.0,-9999.0,'11111222,11111222,99999999' 
ADCP,ioos:station:wmo:42373:1,2008-07-01T06:19:00Z,27.3540,-94.6250,79.0,63.0,23.9,-9999.0,'11111222,11111222,99999999' 
ADCP,ioos:station:wmo:42373:1,2008-07-01T06:39:00Z,27.3540,-94.6250,79.0,61.0,23.8,-9999.0,'11111222,11111222,99999999' 
ADCP,ioos:station:wmo:42373:1,2008-07-01T06:59:00Z,27.3540,-94.6250,79.0,62.0,26.1,-9999.0,'11111222,11111222,99999999' 
ADCP,ioos:station:wmo:42373:1,2008-07-01T07:19:00Z,27.3540,-94.6250,79.0,62.0,24.2,-9999.0,'11111222,11111222,99999999' 
ADCP,ioos:station:wmo:42373:1,2008-07-01T07:39:00Z,27.3540,-94.6250,79.0,64.0,24.3,-9999.0,'11111222,11111222,99999999' 
ADCP,ioos:station:wmo:42373:1,2008-07-01T07:59:00Z,27.3540,-94.6250,79.0,63.0,26.9,-9999.0,'11111222,11111222,99999999' 
ADCP,ioos:station:wmo:42373:1,2008-07-01T08:19:00Z,27.3540,-94.6250,79.0,65.0,27.0,-9999.0,'11111222,11111222,99999999' 
ADCP,ioos:station:wmo:42373:1,2008-07-01T08:39:00Z,27.3540,-94.6250,79.0,60.0,26.8,-9999.0,'11111222,11111222,99999999' 
ADCP,ioos:station:wmo:42373:1,2008-07-01T08:59:00Z,27.3540,-94.6250,79.0,59.0,27.9,-9999.0,'11111222,11111222,99999999' 
ADCP,ioos:station:wmo:42373:1,2008-07-01T09:19:00Z,27.3540,-94.6250,79.0,60.0,32.4,-9999.0,'11111222,11111222,99999999' 
ADCP,ioos:station:wmo:42373:1,2008-07-01T09:39:00Z,27.3540,-94.6250,79.0,59.0,33.6,-9999.0,'11111222,11111222,99999999' 
ADCP,ioos:station:wmo:42373:1,2008-07-01T09:59:00Z,27.3540,-94.6250,79.0,59.0,32.2,-9999.0,'11111222,11111222,99999999' 
ADCP,ioos:station:wmo:42373:1,2008-07-01T10:19:00Z,27.3540,-94.6250,79.0,60.0,34.4,-9999.0,'11111222,11111222,99999999' 
ADCP,ioos:station:wmo:42373:1,2008-07-01T10:39:00Z,27.3540,-94.6250,79.0,62.0,34.8,-9999.0,'11111222,11111222,99999999' 
ADCP,ioos:station:wmo:42373:1,2008-07-01T10:59:00Z,27.3540,-94.6250,79.0,63.0,36.0,-9999.0,'11111222,11111222,99999999' 
ADCP,ioos:station:wmo:42373:1,2008-07-01T11:19:00Z,27.3540,-94.6250,79.0,61.0,35.8,-9999.0,'11111222,11111222,99999999' 
ADCP,ioos:station:wmo:42373:1,2008-07-01T11:39:00Z,27.3540,-94.6250,79.0,60.0,35.9,-9999.0,'11111222,11111222,99999999' 
ADCP,ioos:station:wmo:42373:1,2008-07-01T11:59:00Z,27.3540,-94.6250,79.0,59.0,37.1,-9999.0,'11111222,11111222,99999999' 
ADCP,ioos:station:wmo:42373:1,2008-07-01T12:19:00Z,27.3540,-94.6250,79.0,61.0,38.9,-9999.0,'11111222,11111222,99999999' 
ADCP,ioos:station:wmo:42373:1,2008-07-01T12:39:00Z,27.3540,-94.6250,79.0,61.0,39.2,-9999.0,'11111222,11111222,99999999' 
ADCP,ioos:station:wmo:42373:1,2008-07-01T12:59:00Z,27.3540,-94.6250,79.0,63.0,39.9,-9999.0,'11111222,11111222,99999999' 
ADCP,ioos:station:wmo:42373:1,2008-07-01T13:19:00Z,27.3540,-94.6250,79.0,63.0,41.1,-9999.0,'11111222,11111222,99999999' 
ADCP,ioos:station:wmo:42373:1,2008-07-01T13:39:00Z,27.3540,-94.6250,79.0,62.0,42.1,-9999.0,'11111222,11111222,99999999' 
ADCP,ioos:station:wmo:42373:1,2008-07-01T13:59:00Z,27.3540,-94.6250,79.0,62.0,42.4,-9999.0,'11111222,11111222,99999999' 
ADCP,ioos:station:wmo:42373:1,2008-07-01T14:19:00Z,27.3540,-94.6250,79.0,62.0,42.0,-9999.0,'11111222,11111222,99999999' 
ADCP,ioos:station:wmo:42373:1,2008-07-01T14:39:00Z,27.3540,-94.6250,79.0,62.0,41.9,-9999.0,'11111222,11111222,99999999' 
ADCP,ioos:station:wmo:42373:1,2008-07-01T14:59:00Z,27.3540,-94.6250,79.0,64.0,42.0,-9999.0,'11111222,11111222,99999999' 
ADCP,ioos:station:wmo:42373:1,2008-07-01T15:19:00Z,27.3540,-94.6250,79.0,65.0,41.5,-9999.0,'11111222,11111222,99999999' 
ADCP,ioos:station:wmo:42373:1,2008-07-01T15:39:00Z,27.3540,-94.6250,79.0,66.0,40.9,-9999.0,'11111222,11111222,99999999' 
ADCP,ioos:station:wmo:42373:1,2008-07-01T15:59:00Z,27.3540,-94.6250,79.0,66.0,40.6,-9999.0,'11111222,11111222,99999999' 
ADCP,ioos:station:wmo:42373:1,2008-07-01T16:19:00Z,27.3540,-94.6250,79.0,65.0,39.9,-9999.0,'11111222,11111222,99999999' 
ADCP,ioos:station:wmo:42373:1,2008-07-01T16:39:00Z,27.3540,-94.6250,79.0,64.0,40.7,-9999.0,'11111222,11111222,99999999' 
ADCP,ioos:station:wmo:42373:1,2008-07-01T16:59:00Z,27.3540,-94.6250,79.0,63.0,39.4,-9999.0,'11111222,11111222,99999999' 
ADCP,ioos:station:wmo:42373:1,2008-07-01T17:19:00Z,27.3540,-94.6250,79.0,58.0,38.1,-9999.0,'11111222,11111222,99999999' 
ADCP,ioos:station:wmo:42373:1,2008-07-01T17:39:00Z,27.3540,-94.6250,79.0,61.0,39.0,-9999.0,'11111222,11111222,99999999' 
ADCP,ioos:station:wmo:42373:1,2008-07-01T17:59:00Z,27.3540,-94.6250,79.0,59.0,38.0,-9999.0,'11111222,11111222,99999999' 
ADCP,ioos:station:wmo:42373:1,2008-07-01T18:19:00Z,27.3540,-94.6250,79.0,61.0,38.7,-9999.0,'11111222,11111222,99999999' 
ADCP,ioos:station:wmo:42373:1,2008-07-01T18:39:00Z,27.3540,-94.6250,79.0,65.0,39.3,-9999.0,'11111222,11111222,99999999' 
ADCP,ioos:station:wmo:42373:1,2008-07-01T18:59:00Z,27.3540,-94.6250,79.0,65.0,39.5,-9999.0,'11111222,11111222,99999999' 
ADCP,ioos:station:wmo:42373:1,2008-07-01T19:19:00Z,27.3540,-94.6250,79.0,65.0,40.2,-9999.0,'11111222,11111222,99999999' 
ADCP,ioos:station:wmo:42373:1,2008-07-01T19:39:00Z,27.3540,-94.6250,79.0,63.0,40.6,-9999.0,'11111222,11111222,99999999' 
ADCP,ioos:station:wmo:42373:1,2008-07-01T19:59:00Z,27.3540,-94.6250,79.0,66.0,40.9,-9999.0,'11111222,11111222,99999999' 
ADCP,ioos:station:wmo:42373:1,2008-07-01T20:19:00Z,27.3540,-94.6250,79.0,67.0,41.5,-9999.0,'11111222,11111222,99999999' 
ADCP,ioos:station:wmo:42373:1,2008-07-01T20:39:00Z,27.3540,-94.6250,79.0,68.0,41.7,-9999.0,'11111222,11111222,99999999' 
ADCP,ioos:station:wmo:42373:1,2008-07-01T20:59:00Z,27.3540,-94.6250,79.0,68.0,42.4,-9999.0,'11111222,11111222,99999999' 
ADCP,ioos:station:wmo:42373:1,2008-07-01T21:19:00Z,27.3540,-94.6250,79.0,69.0,43.5,-9999.0,'11111222,11111222,99999999' 
ADCP,ioos:station:wmo:42373:1,2008-07-01T21:39:00Z,27.3540,-94.6250,79.0,68.0,43.5,-9999.0,'11111222,11111222,99999999' 
ADCP,ioos:station:wmo:42373:1,2008-07-01T21:59:00Z,27.3540,-94.6250,79.0,69.0,43.3,-9999.0,'11111222,11111222,99999999' 
ADCP,ioos:station:wmo:42373:1,2008-07-01T22:19:00Z,27.3540,-94.6250,79.0,70.0,43.3,-9999.0,'11111222,11111222,99999999' 
ADCP,ioos:station:wmo:42373:1,2008-07-01T22:39:00Z,27.3540,-94.6250,79.0,71.0,43.4,-9999.0,'11111222,11111222,99999999' 
ADCP,ioos:station:wmo:42373:1,2008-07-01T22:59:00Z,27.3540,-94.6250,79.0,70.0,43.6,-9999.0,'11111222,11111222,99999999' 
ADCP,ioos:station:wmo:42373:1,2008-07-01T23:19:00Z,27.3540,-94.6250,79.0,71.0,42.7,-9999.0,'11111222,11111222,99999999' 
ADCP,ioos:station:wmo:42373:1,2008-07-01T23:39:00Z,27.3540,-94.6250,79.0,73.0,42.0,-9999.0,'11111222,11111222,99999999' 
ADCP,ioos:station:wmo:42373:1,2008-07-01T23:59:00Z,27.3540,-94.6250,79.0,72.0,41.9,-9999.0,'11111222,11111222,99999999' 
ADCP,ioos:station:wmo:42373:1,2008-07-02T00:19:00Z,27.3540,-94.6250,79.0,72.0,41.9,-9999.0,'11111222,11111222,99999999' 
ADCP,ioos:station:wmo:42373:1,2008-07-02T00:39:00Z,27.3540,-94.6250,79.0,72.0,41.6,-9999.0,'11111222,11111222,99999999' 
ADCP,ioos:station:wmo:42373:1,2008-07-02T00:59:00Z,27.3540,-94.6250,79.0,71.0,42.0,-9999.0,'11111222,11111222,99999999' 
ADCP,ioos:station:wmo:42373:1,2008-07-02T01:19:00Z,27.3540,-94.6250,79.0,73.0,41.8,-9999.0,'11111222,11111222,99999999' 
ADCP,ioos:station:wmo:42373:1,2008-07-02T01:39:00Z,27.3540,-94.6250,79.0,72.0,39.7,-9999.0,'11111222,11111222,99999999' 
ADCP,ioos:station:wmo:42373:1,2008-07-02T01:59:00Z,27.3540,-94.6250,79.0,71.0,37.5,-9999.0,'11111222,11111222,99999999' 
ADCP,ioos:station:wmo:42373:1,2008-07-02T02:19:00Z,27.3540,-94.6250,79.0,68.0,36.7,-9999.0,'11111222,11111222,99999999' 
ADCP,ioos:station:wmo:42373:1,2008-07-02T02:39:00Z,27.3540,-94.6250,79.0,68.0,35.4,-9999.0,'11111222,11111222,99999999' 
ADCP,ioos:station:wmo:42373:1,2008-07-02T02:59:00Z,27.3540,-94.6250,79.0,68.0,35.4,-9999.0,'11111222,11111222,99999999' 
ADCP,ioos:station:wmo:42373:1,2008-07-02T03:19:00Z,27.3540,-94.6250,79.0,69.0,33.5,-9999.0,'11111222,11111222,99999999' 
ADCP,ioos:station:wmo:42373:1,2008-07-02T03:39:00Z,27.3540,-94.6250,79.0,69.0,33.2,-9999.0,'11111222,11111222,99999999' 
ADCP,ioos:station:wmo:42373:1,2008-07-02T03:59:00Z,27.3540,-94.6250,79.0,69.0,34.6,-9999.0,'11111222,11111222,99999999' 
ADCP,ioos:station:wmo:42373:1,2008-07-02T04:19:00Z,27.3540,-94.6250,79.0,70.0,33.9,-9999.0,'11111222,11111222,99999999' 
ADCP,ioos:station:wmo:42373:1,2008-07-02T04:39:00Z,27.3540,-94.6250,79.0,69.0,29.8,-9999.0,'11111222,11111222,99999999' 
ADCP,ioos:station:wmo:42373:1,2008-07-02T04:59:00Z,27.3540,-94.6250,79.0,69.0,30.7,-9999.0,'11111222,11111222,99999999' 
ADCP,ioos:station:wmo:42373:1,2008-07-02T05:19:00Z,27.3540,-94.6250,79.0,69.0,28.7,-9999.0,'11111222,11111222,99999999' 
ADCP,ioos:station:wmo:42373:1,2008-07-02T05:39:00Z,27.3540,-94.6250,79.0,66.0,30.1,-9999.0,'11111222,11111222,99999999' 
ADCP,ioos:station:wmo:42373:1,2008-07-02T05:59:00Z,27.3540,-94.6250,79.0,67.0,29.7,-9999.0,'11111222,11111222,99999999' 
ADCP,ioos:station:wmo:42373:1,2008-07-02T06:19:00Z,27.3540,-94.6250,79.0,65.0,27.3,-9999.0,'11111222,11111222,99999999' 
ADCP,ioos:station:wmo:42373:1,2008-07-02T06:39:00Z,27.3540,-94.6250,79.0,63.0,29.9,-9999.0,'11111222,11111222,99999999' 
ADCP,ioos:station:wmo:42373:1,2008-07-02T06:59:00Z,27.3540,-94.6250,79.0,61.0,29.2,-9999.0,'11111222,11111222,99999999' 
ADCP,ioos:station:wmo:42373:1,2008-07-02T07:19:00Z,27.3540,-94.6250,79.0,61.0,28.5,-9999.0,'11111222,11111222,99999999' 
ADCP,ioos:station:wmo:42373:1,2008-07-02T07:39:00Z,27.3540,-94.6250,79.0,59.0,28.9,-9999.0,'11111222,11111222,99999999' 
ADCP,ioos:station:wmo:42373:1,2008-07-02T07:59:00Z,27.3540,-94.6250,79.0,58.0,30.5,-9999.0,'11111222,11111222,99999999' 
ADCP,ioos:station:wmo:42373:1,2008-07-02T08:19:00Z,27.3540,-94.6250,79.0,55.0,28.1,-9999.0,'11111222,11111222,99999999' 
ADCP,ioos:station:wmo:42373:1,2008-07-02T08:39:00Z,27.3540,-94.6250,79.0,58.0,33.7,-9999.0,'11111222,11111222,99999999' 
ADCP,ioos:station:wmo:42373:1,2008-07-02T08:59:00Z,27.3540,-94.6250,79.0,57.0,31.3,-9999.0,'11111222,11111222,99999999' 
ADCP,ioos:station:wmo:42373:1,2008-07-02T09:19:00Z,27.3540,-94.6250,79.0,59.0,32.3,-9999.0,'11111222,11111222,99999999' 
ADCP,ioos:station:wmo:42373:1,2008-07-02T09:39:00Z,27.3540,-94.6250,79.0,56.0,32.6,-9999.0,'11111222,11111222,99999999' 
ADCP,ioos:station:wmo:42373:1,2008-07-02T09:59:00Z,27.3540,-94.6250,79.0,58.0,33.3,-9999.0,'11111222,11111222,99999999' 
ADCP,ioos:station:wmo:42373:1,2008-07-02T10:19:00Z,27.3540,-94.6250,79.0,59.0,34.3,-9999.0,'11111222,11111222,99999999' 
ADCP,ioos:station:wmo:42373:1,2008-07-02T10:39:00Z,27.3540,-94.6250,79.0,57.0,33.4,-9999.0,'11111222,11111222,99999999' 
ADCP,ioos:station:wmo:42373:1,2008-07-02T10:59:00Z,27.3540,-94.6250,79.0,57.0,34.8,-9999.0,'11111222,11111222,99999999' 
ADCP,ioos:station:wmo:42373:1,2008-07-02T11:19:00Z,27.3540,-94.6250,79.0,60.0,36.0,-9999.0,'11111222,11111222,99999999' 
ADCP,ioos:station:wmo:42373:1,2008-07-02T11:39:00Z,27.3540,-94.6250,79.0,60.0,36.6,-9999.0,'11111222,11111222,99999999' 
ADCP,ioos:station:wmo:42373:1,2008-07-02T11:59:00Z,27.3540,-94.6250,79.0,60.0,36.9,-9999.0,'11111222,11111222,99999999' 
ADCP,ioos:station:wmo:42373:1,2008-07-02T12:19:00Z,27.3540,-94.6250,79.0,59.0,36.0,-9999.0,'11111222,11111222,99999999' 
ADCP,ioos:station:wmo:42373:1,2008-07-02T12:39:00Z,27.3540,-94.6250,79.0,57.0,36.0,-9999.0,'11111222,11111222,99999999' 
ADCP,ioos:station:wmo:42373:1,2008-07-02T12:59:00Z,27.3540,-94.6250,79.0,60.0,36.0,-9999.0,'11111222,11111222,99999999' 
ADCP,ioos:station:wmo:42373:1,2008-07-02T13:19:00Z,27.3540,-94.6250,79.0,61.0,37.1,-9999.0,'11111222,11111222,99999999' 
ADCP,ioos:station:wmo:42373:1,2008-07-02T13:39:00Z,27.3540,-94.6250,79.0,61.0,36.2,-9999.0,'11111222,11111222,99999999' 
ADCP,ioos:station:wmo:42373:1,2008-07-02T13:59:00Z,27.3540,-94.6250,79.0,60.0,36.4,-9999.0,'11111222,11111222,99999999' 
ADCP,ioos:station:wmo:42373:1,2008-07-02T14:19:00Z,27.3540,-94.6250,79.0,60.0,36.9,-9999.0,'11111222,11111222,99999999' 
ADCP,ioos:station:wmo:42373:1,2008-07-02T14:39:00Z,27.3540,-94.6250,79.0,61.0,36.6,-9999.0,'11111222,11111222,99999999' 
ADCP,ioos:station:wmo:42373:1,2008-07-02T14:59:00Z,27.3540,-94.6250,79.0,61.0,36.8,-9999.0,'11111222,11111222,99999999' 
ADCP,ioos:station:wmo:42373:1,2008-07-02T15:19:00Z,27.3540,-94.6250,79.0,62.0,36.7,-9999.0,'11111222,11111222,99999999' 
ADCP,ioos:station:wmo:42373:1,2008-07-02T15:39:00Z,27.3540,-94.6250,79.0,62.0,37.9,-9999.0,'11111222,11111222,99999999' 
ADCP,ioos:station:wmo:42373:1,2008-07-02T15:59:00Z,27.3540,-94.6250,79.0,62.0,39.0,-9999.0,'11111222,11111222,99999999' 
ADCP,ioos:station:wmo:42373:1,2008-07-02T16:19:00Z,27.3540,-94.6250,79.0,61.0,39.7,-9999.0,'11111222,11111222,99999999' 
ADCP,ioos:station:wmo:42373:1,2008-07-02T16:39:00Z,27.3540,-94.6250,79.0,61.0,39.5,-9999.0,'11111222,11111222,99999999' 
ADCP,ioos:station:wmo:42373:1,2008-07-02T16:59:00Z,27.3540,-94.6250,79.0,61.0,39.9,-9999.0,'11111222,11111222,99999999' 
ADCP,ioos:station:wmo:42373:1,2008-07-02T17:19:00Z,27.3540,-94.6250,79.0,62.0,40.2,-9999.0,'11111222,11111222,99999999' 
ADCP,ioos:station:wmo:42373:1,2008-07-02T17:39:00Z,27.3540,-94.6250,79.0,63.0,40.7,-9999.0,'11111222,11111222,99999999' 
ADCP,ioos:station:wmo:42373:1,2008-07-02T17:59:00Z,27.3540,-94.6250,79.0,64.0,41.2,-9999.0,'11111222,11111222,99999999' 
ADCP,ioos:station:wmo:42373:1,2008-07-02T18:19:00Z,27.3540,-94.6250,79.0,65.0,41.2,-9999.0,'11111222,11111222,99999999' 
ADCP,ioos:station:wmo:42373:1,2008-07-02T18:39:00Z,27.3540,-94.6250,79.0,66.0,40.6,-9999.0,'11111222,11111222,99999999' 
ADCP,ioos:station:wmo:42373:1,2008-07-02T18:59:00Z,27.3540,-94.6250,79.0,67.0,40.6,-9999.0,'11111222,11111222,99999999' 
ADCP,ioos:station:wmo:42373:1,2008-07-02T19:19:00Z,27.3540,-94.6250,79.0,68.0,40.5,-9999.0,'11111222,11111222,99999999' 
ADCP,ioos:station:wmo:42373:1,2008-07-02T19:39:00Z,27.3540,-94.6250,79.0,67.0,41.2,-9999.0,'11111222,11111222,99999999' 
ADCP,ioos:station:wmo:42373:1,2008-07-02T19:59:00Z,27.3540,-94.6250,79.0,68.0,40.5,-9999.0,'11111222,11111222,99999999' 
ADCP,ioos:station:wmo:42373:1,2008-07-02T20:19:00Z,27.3540,-94.6250,79.0,69.0,41.5,-9999.0,'11111222,11111222,99999999' 
ADCP,ioos:station:wmo:42373:1,2008-07-02T20:39:00Z,27.3540,-94.6250,79.0,70.0,41.3,-9999.0,'11111222,11111222,99999999' 
ADCP,ioos:station:wmo:42373:1,2008-07-02T20:59:00Z,27.3540,-94.6250,79.0,70.0,41.3,-9999.0,'11111222,11111222,99999999' 
ADCP,ioos:station:wmo:42373:1,2008-07-02T21:19:00Z,27.3540,-94.6250,79.0,71.0,42.2,-9999.0,'11111222,11111222,99999999' 
ADCP,ioos:station:wmo:42373:1,2008-07-02T21:39:00Z,27.3540,-94.6250,79.0,71.0,42.0,-9999.0,'11111222,11111222,99999999' 
ADCP,ioos:station:wmo:42373:1,2008-07-02T21:59:00Z,27.3540,-94.6250,79.0,72.0,43.2,-9999.0,'11111222,11111222,99999999' 
ADCP,ioos:station:wmo:42373:1,2008-07-02T22:19:00Z,27.3540,-94.6250,79.0,72.0,42.9,-9999.0,'11111222,11111222,99999999' 
ADCP,ioos:station:wmo:42373:1,2008-07-02T22:39:00Z,27.3540,-94.6250,79.0,74.0,43.4,-9999.0,'11111222,11111222,99999999' 
ADCP,ioos:station:wmo:42373:1,2008-07-02T22:59:00Z,27.3540,-94.6250,79.0,74.0,41.7,-9999.0,'11111222,11111222,99999999' 
ADCP,ioos:station:wmo:42373:1,2008-07-02T23:19:00Z,27.3540,-94.6250,79.0,74.0,42.0,-9999.0,'11111222,11111222,99999999' 
ADCP,ioos:station:wmo:42373:1,2008-07-02T23:39:00Z,27.3540,-94.6250,79.0,75.0,41.1,-9999.0,'11111222,11111222,99999999' 
ADCP,ioos:station:wmo:42373:1,2008-07-02T23:59:00Z,27.3540,-94.6250,79.0,75.0,40.6,-9999.0,'11111222,11111222,99999999' 
ADCP,ioos:station:wmo:42373:1,2008-07-03T00:19:00Z,27.3540,-94.6250,79.0,75.0,40.0,-9999.0,'11111222,11111222,99999999' 
ADCP,ioos:station:wmo:42373:1,2008-07-03T00:39:00Z,27.3540,-94.6250,79.0,75.0,39.3,-9999.0,'11111222,11111222,99999999' 
ADCP,ioos:station:wmo:42373:1,2008-07-03T00:59:00Z,27.3540,-94.6250,79.0,75.0,38.5,-9999.0,'11111222,11111222,99999999' 
ADCP,ioos:station:wmo:42373:1,2008-07-03T01:19:00Z,27.3540,-94.6250,79.0,76.0,38.5,-9999.0,'11111222,11111222,99999999' 
ADCP,ioos:station:wmo:42373:1,2008-07-03T01:39:00Z,27.3540,-94.6250,79.0,76.0,37.1,-9999.0,'11111222,11111222,99999999' 
ADCP,ioos:station:wmo:42373:1,2008-07-03T01:59:00Z,27.3540,-94.6250,79.0,76.0,35.4,-9999.0,'11111222,11111222,99999999' 
ADCP,ioos:station:wmo:42373:1,2008-07-03T02:19:00Z,27.3540,-94.6250,79.0,75.0,34.6,-9999.0,'11111222,11111222,99999999' 
ADCP,ioos:station:wmo:42373:1,2008-07-03T02:39:00Z,27.3540,-94.6250,79.0,75.0,33.9,-9999.0,'11111222,11111222,99999999' 
ADCP,ioos:station:wmo:42373:1,2008-07-03T02:59:00Z,27.3540,-94.6250,79.0,74.0,34.2,-9999.0,'11111222,11111222,99999999' 
ADCP,ioos:station:wmo:42373:1,2008-07-03T03:19:00Z,27.3540,-94.6250,79.0,74.0,31.8,-9999.0,'11111222,11111222,99999999' 
ADCP,ioos:station:wmo:42373:1,2008-07-03T03:39:00Z,27.3540,-94.6250,79.0,74.0,29.1,-9999.0,'11111222,11111222,99999999' 
ADCP,ioos:station:wmo:42373:1,2008-07-03T03:59:00Z,27.3540,-94.6250,79.0,75.0,30.3,-9999.0,'11111222,11111222,99999999' 
ADCP,ioos:station:wmo:42373:1,2008-07-03T04:19:00Z,27.3540,-94.6250,79.0,74.0,28.9,-9999.0,'11111222,11111222,99999999' 
ADCP,ioos:station:wmo:42373:1,2008-07-03T04:39:00Z,27.3540,-94.6250,79.0,74.0,25.0,-9999.0,'11111222,11111222,99999999' 
ADCP,ioos:station:wmo:42373:1,2008-07-03T04:59:00Z,27.3540,-94.6250,79.0,71.0,29.7,-9999.0,'11111222,11111222,99999999' 
ADCP,ioos:station:wmo:42373:1,2008-07-03T05:19:00Z,27.3540,-94.6250,79.0,72.0,29.4,-9999.0,'11111222,11111222,99999999' 
ADCP,ioos:station:wmo:42373:1,2008-07-03T05:39:00Z,27.3540,-94.6250,79.0,70.0,25.1,-9999.0,'11111222,11111222,99999999' 
ADCP,ioos:station:wmo:42373:1,2008-07-03T05:59:00Z,27.3540,-94.6250,79.0,68.0,26.5,-9999.0,'11111222,11111222,99999999' 
ADCP,ioos:station:wmo:42373:1,2008-07-03T06:19:00Z,27.3540,-94.6250,79.0,66.0,26.4,-9999.0,'11111222,11111222,99999999' 
ADCP,ioos:station:wmo:42373:1,2008-07-03T06:39:00Z,27.3540,-94.6250,79.0,64.0,25.8,-9999.0,'11111222,11111222,99999999' 
ADCP,ioos:station:wmo:42373:1,2008-07-03T06:59:00Z,27.3540,-94.6250,79.0,61.0,24.7,-9999.0,'11111222,11111222,99999999' 
ADCP,ioos:station:wmo:42373:1,2008-07-03T07:19:00Z,27.3540,-94.6250,79.0,59.0,26.0,-9999.0,'11111222,11111222,99999999' 
ADCP,ioos:station:wmo:42373:1,2008-07-03T07:39:00Z,27.3540,-94.6250,79.0,56.0,22.0,-9999.0,'11111222,11111222,99999999' 
ADCP,ioos:station:wmo:42373:1,2008-07-03T07:59:00Z,27.3540,-94.6250,79.0,53.0,22.7,-9999.0,'11111222,11111222,99999999' 
ADCP,ioos:station:wmo:42373:1,2008-07-03T08:19:00Z,27.3540,-94.6250,79.0,50.0,22.7,-9999.0,'11111222,11111222,99999999' 
ADCP,ioos:station:wmo:42373:1,2008-07-03T08:39:00Z,27.3540,-94.6250,79.0,53.0,24.8,-9999.0,'11111222,11111222,99999999' 
ADCP,ioos:station:wmo:42373:1,2008-07-03T08:59:00Z,27.3540,-94.6250,79.0,53.0,24.8,-9999.0,'11111222,11111222,99999999' 
ADCP,ioos:station:wmo:42373:1,2008-07-03T09:19:00Z,27.3540,-94.6250,79.0,54.0,27.6,-9999.0,'11111222,11111222,99999999' 
ADCP,ioos:station:wmo:42373:1,2008-07-03T09:39:00Z,27.3540,-94.6250,79.0,57.0,28.2,-9999.0,'11111222,11111222,99999999' 
ADCP,ioos:station:wmo:42373:1,2008-07-03T09:59:00Z,27.3540,-94.6250,79.0,59.0,27.9,-9999.0,'11111222,11111222,99999999' 
ADCP,ioos:station:wmo:42373:1,2008-07-03T10:19:00Z,27.3540,-94.6250,79.0,56.0,29.4,-9999.0,'11111222,11111222,99999999' 
ADCP,ioos:station:wmo:42373:1,2008-07-03T10:39:00Z,27.3540,-94.6250,79.0,56.0,30.8,-9999.0,'11111222,11111222,99999999' 
ADCP,ioos:station:wmo:42373:1,2008-07-03T10:59:00Z,27.3540,-94.6250,79.0,57.0,32.1,-9999.0,'11111222,11111222,99999999' 
ADCP,ioos:station:wmo:42373:1,2008-07-03T11:19:00Z,27.3540,-94.6250,79.0,57.0,32.3,-9999.0,'11111222,11111222,99999999' 
ADCP,ioos:station:wmo:42373:1,2008-07-03T11:39:00Z,27.3540,-94.6250,79.0,59.0,32.5,-9999.0,'11111222,11111222,99999999' 
ADCP,ioos:station:wmo:42373:1,2008-07-03T11:59:00Z,27.3540,-94.6250,79.0,61.0,32.3,-9999.0,'11111222,11111222,99999999' 
ADCP,ioos:station:wmo:42373:1,2008-07-03T12:19:00Z,27.3540,-94.6250,79.0,62.0,32.9,-9999.0,'11111222,11111222,99999999' 
ADCP,ioos:station:wmo:42373:1,2008-07-03T12:39:00Z,27.3540,-94.6250,79.0,61.0,32.6,-9999.0,'11111222,11111222,99999999' 
ADCP,ioos:station:wmo:42373:1,2008-07-03T12:59:00Z,27.3540,-94.6250,79.0,62.0,32.6,-9999.0,'11111222,11111222,99999999' 
ADCP,ioos:station:wmo:42373:1,2008-07-03T13:19:00Z,27.3540,-94.6250,79.0,62.0,33.1,-9999.0,'11111222,11111222,99999999' 
ADCP,ioos:station:wmo:42373:1,2008-07-03T13:39:00Z,27.3540,-94.6250,79.0,62.0,32.8,-9999.0,'11111222,11111222,99999999' 
ADCP,ioos:station:wmo:42373:1,2008-07-03T13:59:00Z,27.3540,-94.6250,79.0,63.0,32.6,-9999.0,'11111222,11111222,99999999' 
ADCP,ioos:station:wmo:42373:1,2008-07-03T14:19:00Z,27.3540,-94.6250,79.0,63.0,32.4,-9999.0,'11111222,11111222,99999999' 
ADCP,ioos:station:wmo:42373:1,2008-07-03T14:39:00Z,27.3540,-94.6250,79.0,64.0,33.1,-9999.0,'11111222,11111222,99999999' 
ADCP,ioos:station:wmo:42373:1,2008-07-03T14:59:00Z,27.3540,-94.6250,79.0,63.0,32.3,-9999.0,'11111222,11111222,99999999' 
ADCP,ioos:station:wmo:42373:1,2008-07-03T15:19:00Z,27.3540,-94.6250,79.0,62.0,31.6,-9999.0,'11111222,11111222,99999999' 
ADCP,ioos:station:wmo:42373:1,2008-07-03T15:39:00Z,27.3540,-94.6250,79.0,62.0,31.8,-9999.0,'11111222,11111222,99999999' 
ADCP,ioos:station:wmo:42373:1,2008-07-03T15:59:00Z,27.3540,-94.6250,79.0,64.0,31.5,-9999.0,'11111222,11111222,99999999' 
ADCP,ioos:station:wmo:42373:1,2008-07-03T16:19:00Z,27.3540,-94.6250,79.0,64.0,32.6,-9999.0,'11111222,11111222,99999999' 
ADCP,ioos:station:wmo:42373:1,2008-07-03T16:39:00Z,27.3540,-94.6250,79.0,64.0,32.0,-9999.0,'11111222,11111222,99999999' 
ADCP,ioos:station:wmo:42373:1,2008-07-03T16:59:00Z,27.3540,-94.6250,79.0,64.0,32.2,-9999.0,'11111222,11111222,99999999' 
ADCP,ioos:station:wmo:42373:1,2008-07-03T17:19:00Z,27.3540,-94.6250,79.0,66.0,33.9,-9999.0,'11111222,11111222,99999999' 
ADCP,ioos:station:wmo:42373:1,2008-07-03T17:39:00Z,27.3540,-94.6250,79.0,66.0,33.4,-9999.0,'11111222,11111222,99999999' 